#timestamp,LO_Frequency,Hit 
1498248015.2,286046984.2,N
1498248035.9,286046984.5,N
1498248055.7,286046984.0,N
1498248075.6,286046982.2,Y
1498248095.4,286046979.9,Y
1498248115.2,286046974.7,Y
1498248135.1,286046969.3,Y
1498248136.0,286046969.3,Y
1498248155.8,286046963.6,Y
1498248175.7,286046958.9,Y
1498248195.5,286046956.3,Y
1498248215.4,286046951.0,Y
1498248235.2,286046948.0,Y
1498248255.0,286046940.6,Y
1498248256.0,286046940.6,Y
1498248275.8,286046934.8,Y
1498248295.6,286046931.2,Y
1498248315.5,286046928.1,Y
1498248335.3,286046924.9,Y
1498248355.2,286046921.4,Y
1498248375.9,286046921.2,Y
1498248395.7,286046919.6,Y
1498248415.6,286046915.7,Y
1498248435.4,286046911.7,Y
1498248455.2,286046912.5,Y
1498248475.1,286046910.8,Y
1498248476.0,286046910.8,Y
1498248495.8,286046907.2,Y
1498248515.7,286046908.0,Y
1498248535.5,286046908.1,Y
1498248555.4,286046905.4,Y
1498248575.2,286046906.0,Y
1498248595.0,286046906.5,Y
1498248596.0,286046906.5,Y
1498248615.8,286046905.7,Y
1498248635.6,286046905.7,Y
1498248655.5,286046908.0,Y
1498248675.3,286046909.1,Y
1498248695.1,286046911.6,Y
1498248715.9,286046911.2,Y
1498248735.7,286046913.0,Y
1498248755.6,286046913.6,Y
1498248775.4,286046915.7,Y
1498248795.2,286046916.7,Y
1498248815.1,286046920.9,Y
1498248816.0,286046920.9,Y
1498248835.8,286046925.2,Y
1498248855.7,286046926.6,Y
1498248875.5,286046932.4,N
1498248895.3,286046930.6,N
1498248915.2,286046929.5,N
1498248935.0,286046930.8,N
1498248935.9,286046930.8,N
1498248955.7,286046930.8,N
1498248975.6,286046930.8,N
1498248995.4,286046927.8,N
1498249015.2,286046930.3,N
1498249035.1,286046930.8,N
1498249036.0,286046930.8,N
1498249055.8,286046930.8,N
1498249075.6,286046927.9,N
1498249095.5,286046928.1,N
1498249115.3,286046927.7,N
1498249135.1,286046927.7,N
1498249155.8,286046929.5,N
1498249175.7,286046930.5,N
1498249195.5,286046927.8,N
1498249215.3,286046927.9,N
1498249235.2,286046930.8,N
1498249255.0,286046930.8,N
1498249255.9,286046930.8,N
1498249275.7,286046927.7,N
1498249295.6,286046930.8,N
1498249315.4,286046927.8,N
1498249335.2,286046930.7,N
1498249355.1,286046930.1,N
1498249356.0,286046930.1,N
1498249375.8,286046928.1,N
1498249395.6,286046928.1,N
1498249415.5,286046927.7,N
1498249435.3,286046930.6,N
1498249455.1,286046928.2,N
1498249475.9,286046928.6,N
1498249495.7,286046927.8,N
1498249515.5,286046930.3,N
1498249535.3,286046930.5,N
1498249555.2,286046927.7,N
1498249575.0,286046930.4,N
1498249575.9,286046930.4,N
1498249595.7,286046930.7,N
1498249615.6,286046929.6,N
1498249635.4,286046930.0,N
1498249655.2,286046930.3,N
1498249675.1,286046930.8,N
1498249676.0,286046930.8,N
1498249695.8,286046928.3,N
1498249715.6,286046930.4,N
1498249735.5,286046930.7,N
1498249755.3,286046929.0,N
1498249775.1,286046929.2,N
1498249795.8,286046928.0,N
1498249815.7,286046930.5,N
1498249835.5,286046930.6,N
1498249855.3,286046927.7,N
1498249875.2,286046927.8,N
1498249895.9,286046929.0,N
1498249915.7,286046928.7,N
1498249935.6,286046929.1,N
1498249955.4,286046929.0,N
1498249975.2,286046926.5,N
1498249995.1,286046930.0,N
1498249996.0,286046930.0,N
1498250015.8,286046930.5,N
1498250035.6,286046930.7,N
1498250055.5,286046927.9,N
1498250075.3,286046928.0,N
1498250095.1,286046930.0,N
1498250115.8,286046929.5,N
1498250135.7,286046929.8,N
1498250155.5,286046929.4,N
1498250175.3,286046930.1,N
1498250195.2,286046928.2,N
1498250215.9,286046928.4,N
1498250235.7,286046927.7,N
1498250255.6,286046930.8,N
1498250275.4,286046930.2,N
1498250295.2,286046929.7,N
1498250315.1,286046931.9,N
1498250316.0,286046931.9,N
1498250335.8,286046929.4,N
1498250355.6,286046932.4,N
1498250375.4,286046932.1,N
1498250395.3,286046929.6,N
1498250415.1,286046930.6,N
1498250435.8,286046928.3,N
1498250455.7,286046927.8,N
1498250475.5,286046928.4,N
1498250495.3,286046928.4,N
1498250515.2,286046930.8,N
1498250535.9,286046930.7,N
1498250555.7,286046930.3,N
1498250575.6,286046931.9,N
1498250595.4,286046929.9,N
1498250615.2,286046929.5,N
1498250635.0,286046929.5,N
1498250636.0,286046929.5,N
1498250655.8,286046930.6,N
1498250675.6,286046927.7,N
1498250695.4,286046930.7,N
1498250715.3,286046929.6,N
1498250735.1,286046929.9,N
1498250755.8,286046931.8,N
1498250775.7,286046929.6,N
1498250795.5,286046931.7,N
1498250815.3,286046930.1,N
1498250835.2,286046929.7,N
1498250855.9,286046929.9,N
1498250875.7,286046929.9,N
1498250895.6,286046929.8,N
1498250915.4,286046932.3,N
1498250935.2,286046932.0,N
1498250955.0,286046932.2,N
1498250956.0,286046932.2,N
1498250975.8,286046931.5,N
1498250995.6,286046931.0,N
1498251015.4,286046933.9,N
1498251035.3,286046931.6,N
1498251055.1,286046932.0,N
1498251075.8,286046932.0,N
1498251095.7,286046931.7,N
1498251115.5,286046930.9,N
1498251135.3,286046931.0,N
1498251155.2,286046930.9,N
1498251175.9,286046933.6,N
1498251195.7,286046931.2,N
1498251215.6,286046930.9,N
1498251235.4,286046932.9,N
1498251255.2,286046933.0,N
1498251275.0,286046935.5,N
1498251275.9,286046935.5,N
1498251295.8,286046932.7,N
1498251315.6,286046933.9,N
1498251335.4,286046932.5,N
1498251355.3,286046935.0,N
1498251375.1,286046934.4,N
1498251376.0,286046934.4,N
1498251395.8,286046935.1,N
1498251415.7,286046934.8,N
1498251435.5,286046935.2,N
1498251455.3,286046936.9,N
1498251475.2,286046937.2,N
1498251495.9,286046937.1,N
1498251515.7,286046934.8,N
1498251535.5,286046934.6,N
1498251555.4,286046934.1,N
1498251575.2,286046937.2,N
1498251595.0,286046934.6,N
1498251595.9,286046934.6,N
